KLM52Y EHAM-EDDH

Flight info

Callsign KLM52Y
Flight time 0h 45m
Altitude 37000
Route ANDIK M105 RIBSO RIBSO7A
Aircraft MD83/M-SDFGIRWY/S

Departure

Time 2026-05-07 19:45
Airport Amsterdam Airport Schiphol (EHAM)

Arrival

Time 2026-05-07 20:31
Airport Hamburg Helmut Schmidt Airport (EDDH)
Time Latitude Longitude Altitude Speed Heading
2026-05-07 19:39 52.30806 4.77461 0 ft 33 kts 181°
2026-05-07 19:39 52.30633 4.77395 0 ft 21 kts 231°
2026-05-07 19:40 52.30551 4.77188 0 ft 23 kts 238°
2026-05-07 19:40 52.30463 4.76958 0 ft 24 kts 237°
2026-05-07 19:40 52.30371 4.76720 0 ft 25 kts 238°
2026-05-07 19:40 52.30304 4.76544 0 ft 5 kts 238°
2026-05-07 19:41 52.30264 4.76441 0 ft 16 kts 237°
2026-05-07 19:41 52.30212 4.76308 0 ft 15 kts 234°
2026-05-07 19:41 52.30141 4.76257 0 ft 14 kts 190°
2026-05-07 19:41 52.30019 4.76065 0 ft 42 kts 238°
2026-05-07 19:42 52.29864 4.75656 0 ft 42 kts 238°
2026-05-07 19:42 52.29784 4.75319 0 ft 24 kts 293°
2026-05-07 19:42 52.29907 4.75073 0 ft 32 kts 311°
2026-05-07 19:42 52.30084 4.74747 2 ft 42 kts 312°
2026-05-07 19:43 52.30267 4.74408 11 ft 29 kts 311°
2026-05-07 19:43 52.30330 4.74213 0 ft 17 kts 260°
2026-05-07 19:43 52.30296 4.74086 0 ft 25 kts 256°
2026-05-07 19:43 52.30213 4.73879 -1 ft 8 kts 245°
2026-05-07 19:44 52.30205 4.73766 -2 ft 4 kts 302°
2026-05-07 19:44 52.30234 4.73744 -2 ft 6 kts 356°
2026-05-07 19:44 52.30421 4.73759 -2 ft 55 kts
2026-05-07 19:44 52.31063 4.73820 0 ft 129 kts
2026-05-07 19:45 52.32165 4.73882 221 ft 174 kts
2026-05-07 19:45 52.33299 4.73943 1250 ft 169 kts 12°
2026-05-07 19:45 52.34479 4.74536 1951 ft 185 kts 25°
2026-05-07 19:45 52.35692 4.75358 2716 ft 197 kts 25°
2026-05-07 19:46 52.37005 4.76255 3356 ft 212 kts 24°
2026-05-07 19:46 52.38340 4.77479 3901 ft 228 kts 43°
2026-05-07 19:46 52.39500 4.79383 4443 ft 244 kts 47°
2026-05-07 19:46 52.40662 4.81431 5136 ft 251 kts 47°
2026-05-07 19:47 52.41880 4.83559 5732 ft 261 kts 47°
2026-05-07 19:47 52.43223 4.85651 6235 ft 273 kts 33°
2026-05-07 19:47 52.45034 4.86720 6689 ft 284 kts
2026-05-07 19:47 52.47030 4.86638 7216 ft 289 kts 354°
2026-05-07 19:48 52.49028 4.86356 7813 ft 291 kts 354°
2026-05-07 19:48 52.51048 4.86056 8395 ft 293 kts 354°
2026-05-07 19:48 52.53101 4.85978 8907 ft 299 kts
2026-05-07 19:48 52.55018 4.87280 9448 ft 302 kts 37°
2026-05-07 19:49 52.56447 4.89704 10026 ft 302 kts 51°
2026-05-07 19:49 52.57752 4.92452 10473 ft 305 kts 53°
2026-05-07 19:49 52.59037 4.95257 10930 ft 308 kts 53°
2026-05-07 19:49 52.60337 4.98131 11246 ft 317 kts 53°
2026-05-07 19:50 52.61644 5.01060 11501 ft 326 kts 53°
2026-05-07 19:50 52.63012 5.04099 11780 ft 332 kts 53°
2026-05-07 19:50 52.64424 5.07172 12041 ft 338 kts 52°
2026-05-07 19:50 52.65885 5.10291 12230 ft 353 kts 52°
2026-05-07 19:51 52.67428 5.13540 12336 ft 374 kts 52°
2026-05-07 19:51 52.69085 5.17005 12502 ft 395 kts 51°
2026-05-07 19:51 52.70810 5.20598 13212 ft 398 kts 51°
2026-05-07 19:51 52.72547 5.24216 13870 ft 406 kts 51°
2026-05-07 19:52 52.74158 5.28057 14564 ft 408 kts 63°
2026-05-07 19:52 52.75250 5.32342 15214 ft 412 kts 70°
2026-05-07 19:52 52.76195 5.36848 15954 ft 414 kts 71°
2026-05-07 19:52 52.77105 5.41380 16690 ft 418 kts 72°
2026-05-07 19:53 52.78010 5.45895 17505 ft 420 kts 72°
2026-05-07 19:53 52.78942 5.50498 18225 ft 423 kts 71°
2026-05-07 19:53 52.79903 5.55140 18836 ft 427 kts 71°
2026-05-07 19:53 52.80883 5.59784 19504 ft 429 kts 71°
2026-05-07 19:54 52.81888 5.64476 19921 ft 438 kts 71°
2026-05-07 19:54 52.82898 5.69160 20606 ft 436 kts 71°
2026-05-07 19:54 52.83938 5.73972 21035 ft 443 kts 71°
2026-05-07 19:54 52.84970 5.78760 21900 ft 447 kts 71°
2026-05-07 19:55 52.86024 5.83664 22806 ft 455 kts 71°
2026-05-07 19:55 52.86726 5.86936 23541 ft 455 kts 71°
2026-05-07 19:55 52.87790 5.91909 24427 ft 460 kts 71°
2026-05-07 19:55 52.88855 5.96934 25213 ft 465 kts 71°
2026-05-07 19:56 52.89914 6.02033 26011 ft 470 kts 72°
2026-05-07 19:56 52.90976 6.07193 26751 ft 475 kts 72°
2026-05-07 19:56 52.92049 6.12418 27412 ft 481 kts 71°
2026-05-07 19:56 52.93134 6.17685 28042 ft 485 kts 71°
2026-05-07 19:57 52.94220 6.22940 28575 ft 489 kts 71°
2026-05-07 19:57 52.95335 6.28318 29063 ft 492 kts 71°
2026-05-07 19:57 52.96441 6.33646 29444 ft 495 kts 71°
2026-05-07 19:57 52.97571 6.39088 29864 ft 495 kts 71°
2026-05-07 19:58 52.98679 6.44428 30892 ft 482 kts 72°
2026-05-07 19:58 52.99751 6.49603 31584 ft 476 kts 72°
2026-05-07 19:58 53.00818 6.54762 32233 ft 468 kts 72°
2026-05-07 19:58 53.01866 6.59892 32721 ft 465 kts 73°
2026-05-07 19:59 53.02834 6.65047 32912 ft 468 kts 74°
2026-05-07 19:59 53.03777 6.70196 33019 ft 473 kts 73°
2026-05-07 19:59 53.05816 6.80717 33081 ft 481 kts 72°
2026-05-07 20:00 53.07981 6.91213 33092 ft 483 kts 72°
2026-05-07 20:00 53.10196 7.01836 33097 ft 485 kts 72°
2026-05-07 20:01 53.12372 7.12369 33105 ft 479 kts 72°
2026-05-07 20:01 53.14487 7.22876 33105 ft 476 kts 73°
2026-05-07 20:02 53.16470 7.33300 33109 ft 475 kts 73°
2026-05-07 20:02 53.18488 7.43808 33108 ft 475 kts 72°
2026-05-07 20:03 53.19850 7.48833 33112 ft 477 kts 60°
2026-05-07 20:03 53.21622 7.53539 33097 ft 480 kts 57°
2026-05-07 20:03 53.25174 7.62908 33093 ft 478 kts 59°
2026-05-07 20:04 53.28503 7.72487 33092 ft 478 kts 61°
2026-05-07 20:04 53.31760 7.82257 33093 ft 479 kts 61°
2026-05-07 20:05 53.34980 7.91914 33090 ft 479 kts 61°
2026-05-07 20:05 53.38252 8.01658 33091 ft 479 kts 61°
2026-05-07 20:06 53.41496 8.11384 32691 ft 484 kts 62°
2026-05-07 20:06 53.43139 8.16382 31777 ft 491 kts 62°
2026-05-07 20:06 53.44788 8.21410 30885 ft 486 kts 61°
2026-05-07 20:07 53.46431 8.26416 29994 ft 492 kts 62°
2026-05-07 20:07 53.48074 8.31401 29000 ft 490 kts 61°
2026-05-07 20:07 53.49697 8.36325 27974 ft 474 kts 61°
2026-05-07 20:07 53.51277 8.41115 26978 ft 462 kts 61°
2026-05-07 20:08 53.52817 8.45788 26025 ft 452 kts 61°
2026-05-07 20:08 53.54323 8.50360 25106 ft 443 kts 61°
2026-05-07 20:08 53.55787 8.54812 24219 ft 435 kts 61°
2026-05-07 20:08 53.57240 8.59232 23298 ft 428 kts 61°
2026-05-07 20:09 53.58678 8.63612 22273 ft 422 kts 61°
2026-05-07 20:09 53.60082 8.67908 21412 ft 414 kts 61°
2026-05-07 20:09 53.61455 8.72161 20540 ft 410 kts 62°
2026-05-07 20:10 53.64126 8.80498 18920 ft 401 kts 62°
2026-05-07 20:10 53.65430 8.84564 18104 ft 395 kts 62°
2026-05-07 20:10 53.66744 8.88658 17204 ft 391 kts 61°
2026-05-07 20:10 53.68022 8.92636 16346 ft 386 kts 61°
2026-05-07 20:11 53.69294 8.96590 15490 ft 380 kts 61°
2026-05-07 20:11 53.70549 9.00488 14678 ft 372 kts 61°
2026-05-07 20:11 53.71764 9.04262 13881 ft 364 kts 61°
2026-05-07 20:11 53.72964 9.07992 12993 ft 357 kts 61°
2026-05-07 20:12 53.74149 9.11655 12131 ft 351 kts 61°
2026-05-07 20:12 53.75305 9.15171 11305 ft 339 kts 61°
2026-05-07 20:12 53.76441 9.18591 10554 ft 327 kts 61°
2026-05-07 20:12 53.77535 9.21873 10034 ft 310 kts 61°
2026-05-07 20:13 53.78769 9.24653 9870 ft 284 kts 40°
2026-05-07 20:13 53.80299 9.26554 9709 ft 263 kts 34°
2026-05-07 20:13 53.81780 9.28262 9419 ft 255 kts 34°
2026-05-07 20:13 53.83218 9.29906 9067 ft 249 kts 34°
2026-05-07 20:14 53.84658 9.31521 8728 ft 245 kts 34°
2026-05-07 20:14 53.85812 9.33536 8388 ft 241 kts 68°
2026-05-07 20:14 53.85929 9.36287 8080 ft 239 kts 110°
2026-05-07 20:14 53.85011 9.38630 7749 ft 243 kts 130°
2026-05-07 20:15 53.83869 9.40744 7521 ft 242 kts 132°
2026-05-07 20:15 53.82728 9.42808 7301 ft 241 kts 132°
2026-05-07 20:15 53.81566 9.44817 7196 ft 238 kts 133°
2026-05-07 20:15 53.80389 9.46799 7155 ft 238 kts 133°
2026-05-07 20:16 53.79175 9.48741 6945 ft 242 kts 142°
2026-05-07 20:16 53.77608 9.49750 6653 ft 245 kts 171°
2026-05-07 20:16 53.75914 9.50072 6328 ft 248 kts 173°
2026-05-07 20:16 53.74207 9.50357 6055 ft 244 kts 171°
2026-05-07 20:17 53.72586 9.51086 5767 ft 239 kts 157°
2026-05-07 20:17 53.71050 9.52148 5475 ft 237 kts 155°
2026-05-07 20:17 53.69535 9.53242 5190 ft 235 kts 155°
2026-05-07 20:17 53.68056 9.54325 4926 ft 234 kts 155°
2026-05-07 20:18 53.66568 9.55431 4630 ft 233 kts 154°
2026-05-07 20:18 53.65084 9.56542 4336 ft 231 kts 154°
2026-05-07 20:18 53.63643 9.57628 4133 ft 226 kts 154°
2026-05-07 20:18 53.62210 9.58703 4050 ft 224 kts 154°
2026-05-07 20:19 53.60789 9.59766 4012 ft 223 kts 154°
2026-05-07 20:19 53.59353 9.60823 3995 ft 225 kts 154°
2026-05-07 20:19 53.57932 9.61862 3984 ft 226 kts 155°
2026-05-07 20:19 53.56385 9.62300 3980 ft 232 kts 191°
2026-05-07 20:20 53.55021 9.60852 3998 ft 239 kts 229°
2026-05-07 20:20 53.54009 9.58598 3996 ft 242 kts 232°
2026-05-07 20:20 53.53010 9.56319 3981 ft 241 kts 232°
2026-05-07 20:20 53.52038 9.54054 3958 ft 241 kts 233°
2026-05-07 20:21 53.51081 9.51738 3973 ft 241 kts 234°
2026-05-07 20:21 53.50135 9.49406 3974 ft 239 kts 234°
2026-05-07 20:21 53.49231 9.47159 3827 ft 224 kts 234°
2026-05-07 20:21 53.48382 9.45039 3654 ft 218 kts 233°
2026-05-07 20:22 53.47274 9.43423 3476 ft 210 kts 194°
2026-05-07 20:22 53.45893 9.43603 3308 ft 200 kts 149°
2026-05-07 20:22 53.44689 9.44779 3148 ft 200 kts 146°
2026-05-07 20:22 53.43590 9.46128 2952 ft 197 kts 125°
2026-05-07 20:23 53.43286 9.48270 2791 ft 195 kts 79°
2026-05-07 20:23 53.43633 9.50483 2622 ft 196 kts 75°
2026-05-07 20:23 53.43997 9.52699 2444 ft 196 kts 75°
2026-05-07 20:23 53.44363 9.54876 2414 ft 189 kts 75°
2026-05-07 20:24 53.44744 9.56993 2632 ft 192 kts 74°
2026-05-07 20:24 53.45154 9.59175 2755 ft 196 kts 73°
2026-05-07 20:24 53.45568 9.61357 2868 ft 197 kts 73°
2026-05-07 20:24 53.45990 9.63513 2924 ft 198 kts 69°
2026-05-07 20:25 53.46699 9.65502 2954 ft 199 kts 55°
2026-05-07 20:25 53.47529 9.67379 2964 ft 200 kts 55°
2026-05-07 20:25 53.48368 9.69241 2970 ft 199 kts 54°
2026-05-07 20:25 53.49241 9.71057 2972 ft 200 kts 52°
2026-05-07 20:26 53.50125 9.72829 2976 ft 200 kts 52°
2026-05-07 20:26 53.51002 9.74575 2977 ft 184 kts 52°
2026-05-07 20:26 53.51781 9.76127 2964 ft 168 kts 52°
2026-05-07 20:26 53.52537 9.77644 2976 ft 168 kts 53°
2026-05-07 20:27 53.53299 9.79178 2801 ft 174 kts 53°
2026-05-07 20:27 53.54061 9.80710 2533 ft 171 kts 53°
2026-05-07 20:27 53.54821 9.82240 2273 ft 169 kts 53°
2026-05-07 20:27 53.55566 9.83743 2030 ft 166 kts 53°
2026-05-07 20:28 53.56305 9.85230 1814 ft 165 kts 53°
2026-05-07 20:28 53.57036 9.86711 1591 ft 164 kts 52°
2026-05-07 20:28 53.57754 9.88162 1376 ft 162 kts 52°
2026-05-07 20:28 53.58465 9.89593 1171 ft 153 kts 52°
2026-05-07 20:29 53.59108 9.90877 998 ft 140 kts 52°
2026-05-07 20:29 53.59721 9.92143 735 ft 133 kts 51°
2026-05-07 20:29 53.60305 9.93314 577 ft 133 kts 49°
2026-05-07 20:29 53.60961 9.94591 430 ft 145 kts 49°
2026-05-07 20:30 53.61485 9.95661 227 ft 141 kts 51°
2026-05-07 20:30 53.61974 9.96661 91 ft 141 kts 52°
2026-05-07 20:30 53.62576 9.97872 43 ft 130 kts 50°
2026-05-07 20:30 53.63032 9.98812 46 ft 70 kts 50°
2026-05-07 20:31 53.63244 9.99242 47 ft 26 kts 55°
2026-05-07 20:31 53.63291 9.99486 47 ft 18 kts 91°
2026-05-07 20:31 53.63282 9.99618 47 ft 2 kts 100°
2026-05-07 20:31 53.63281 9.99620 49 ft 0 kts 100°
2026-05-07 20:32 53.63270 9.99699 45 ft 8 kts 117°
2026-05-07 20:32 53.63213 9.99769 46 ft 14 kts 152°
2026-05-07 20:32 53.63130 9.99848 49 ft 9 kts 132°
2026-05-07 20:33 53.63121 9.99901 49 ft 5 kts 83°
2026-05-07 20:33 53.63146 9.99967 49 ft 8 kts 51°
2026-05-07 20:33 53.63173 10.00009 47 ft 2 kts 18°
2026-05-07 20:33 53.63187 10.00006 49 ft 2 kts 333°
2026-05-07 20:34 53.63204 9.99983 47 ft 0 kts 320°
2026-05-07 20:34 53.63209 9.99976 49 ft 0 kts 320°